AFL1156 ULLI-UUEE

Flight info

Callsign AFL1156
Flight time 1h 9m
Altitude 33000
Route SUGIN1A/28R SUGIN T873 NIRGI T73 NAMIN NAMIN3E
Aircraft A320/M-SDE3FGHIRWY/LB1

Departure

Time 2026-05-04 19:39
Airport Pulkovo Airport (ULLI)

Arrival

Time 2026-05-04 20:49
Airport Sheremetyevo International Airport (UUEE)
Time Latitude Longitude Altitude Speed Heading
2026-05-04 18:54 59.79813 30.26663 79 ft 0 kts 107°
2026-05-04 19:28 59.79815 30.26654 62 ft 4 kts 107°
2026-05-04 19:28 59.79822 30.26602 89 ft 4 kts 107°
2026-05-04 19:28 59.79827 30.26564 88 ft 4 kts 71°
2026-05-04 19:28 59.79812 30.26535 90 ft 4 kts 18°
2026-05-04 19:29 59.79787 30.26520 84 ft 4 kts 17°
2026-05-04 19:29 59.79778 30.26515 87 ft 0 kts 17°
2026-05-04 19:32 59.79808 30.26533 90 ft 14 kts 17°
2026-05-04 19:33 59.79924 30.26602 85 ft 19 kts 16°
2026-05-04 19:33 59.80059 30.26682 88 ft 21 kts 16°
2026-05-04 19:33 59.80203 30.26768 85 ft 22 kts 15°
2026-05-04 19:33 59.80338 30.26847 85 ft 11 kts 17°
2026-05-04 19:34 59.80378 30.26885 83 ft 9 kts 55°
2026-05-04 19:34 59.80375 30.26992 88 ft 8 kts 104°
2026-05-04 19:34 59.80345 30.27202 90 ft 23 kts 106°
2026-05-04 19:34 59.80299 30.27506 86 ft 22 kts 106°
2026-05-04 19:35 59.80257 30.27792 88 ft 21 kts 106°
2026-05-04 19:35 59.80204 30.28143 84 ft 21 kts 106°
2026-05-04 19:35 59.80172 30.28360 86 ft 26 kts 107°
2026-05-04 19:35 59.80123 30.28689 80 ft 25 kts 107°
2026-05-04 19:36 59.80074 30.29013 81 ft 25 kts 107°
2026-05-04 19:36 59.80025 30.29342 77 ft 24 kts 106°
2026-05-04 19:36 59.79978 30.29658 77 ft 24 kts 107°
2026-05-04 19:36 59.79941 30.29901 70 ft 15 kts 105°
2026-05-04 19:37 59.79963 30.30079 71 ft 13 kts 48°
2026-05-04 19:37 59.79999 30.30155 71 ft 0 kts 47°
2026-05-04 19:37 59.80034 30.30231 68 ft 12 kts 47°
2026-05-04 19:38 59.80100 30.30291 71 ft 10 kts 341°
2026-05-04 19:38 59.80131 30.30168 70 ft 11 kts 285°
2026-05-04 19:38 59.80136 30.30135 76 ft 0 kts 286°
2026-05-04 19:38 59.80141 30.30098 79 ft 16 kts 288°
2026-05-04 19:39 59.80257 30.29326 76 ft 101 kts 286°
2026-05-04 19:39 59.80518 30.27506 179 ft 157 kts 287°
2026-05-04 19:39 59.80821 30.25368 965 ft 162 kts 285°
2026-05-04 19:39 59.81131 30.23188 1876 ft 166 kts 286°
2026-05-04 19:40 59.81471 30.20918 2277 ft 183 kts 286°
2026-05-04 19:40 59.81865 30.18319 2683 ft 203 kts 286°
2026-05-04 19:40 59.82274 30.15614 3313 ft 210 kts 285°
2026-05-04 19:40 59.82691 30.12841 3690 ft 211 kts 284°
2026-05-04 19:41 59.83105 30.10059 4616 ft 209 kts 283°
2026-05-04 19:41 59.83517 30.07270 5470 ft 212 kts 282°
2026-05-04 19:41 59.83932 30.04434 6289 ft 215 kts 282°
2026-05-04 19:41 59.84288 30.01544 7058 ft 216 kts 270°
2026-05-04 19:42 59.83967 29.98717 7804 ft 218 kts 241°
2026-05-04 19:42 59.82842 29.96643 8628 ft 231 kts 210°
2026-05-04 19:42 59.81287 29.95636 9469 ft 237 kts 203°
2026-05-04 19:42 59.79691 29.94736 10226 ft 240 kts 203°
2026-05-04 19:43 59.78081 29.93837 10977 ft 241 kts 203°
2026-05-04 19:43 59.76466 29.92931 11757 ft 242 kts 202°
2026-05-04 19:43 59.74764 29.92562 12502 ft 259 kts 178°
2026-05-04 19:43 59.73077 29.94195 13146 ft 290 kts 147°
2026-05-04 19:44 59.71801 29.97617 13341 ft 329 kts 122°
2026-05-04 19:44 59.70955 30.02041 13499 ft 359 kts 111°
2026-05-04 19:44 59.70344 30.07016 13618 ft 383 kts 106°
2026-05-04 19:44 59.69806 30.12311 13864 ft 399 kts 105°
2026-05-04 19:45 59.69533 30.17861 14298 ft 412 kts 92°
2026-05-04 19:45 59.69626 30.23565 14870 ft 416 kts 92°
2026-05-04 19:45 59.69601 30.29308 15473 ft 419 kts 95°
2026-05-04 19:45 59.69359 30.35045 16047 ft 418 kts 105°
2026-05-04 19:46 59.68681 30.40632 16642 ft 419 kts 109°
2026-05-04 19:46 59.68001 30.46261 17239 ft 422 kts 108°
2026-05-04 19:46 59.67365 30.51955 17815 ft 426 kts 107°
2026-05-04 19:46 59.66758 30.57720 18327 ft 430 kts 106°
2026-05-04 19:47 59.66157 30.63529 18831 ft 432 kts 106°
2026-05-04 19:47 59.65549 30.69360 19341 ft 434 kts 107°
2026-05-04 19:47 59.64983 30.75248 19855 ft 438 kts 105°
2026-05-04 19:47 59.64480 30.81200 20355 ft 441 kts 104°
2026-05-04 19:48 59.64014 30.87203 20823 ft 443 kts 103°
2026-05-04 19:48 59.63558 30.93239 21312 ft 445 kts 103°
2026-05-04 19:48 59.63090 30.99297 21786 ft 447 kts 104°
2026-05-04 19:48 59.62599 31.05372 22257 ft 449 kts 104°
2026-05-04 19:49 59.62086 31.11478 22726 ft 451 kts 105°
2026-05-04 19:49 59.61560 31.17600 23181 ft 453 kts 105°
2026-05-04 19:49 59.61024 31.23749 23561 ft 456 kts 105°
2026-05-04 19:49 59.60479 31.29932 23926 ft 458 kts 105°
2026-05-04 19:50 59.59930 31.36137 24276 ft 460 kts 105°
2026-05-04 19:50 59.59384 31.42378 24621 ft 463 kts 105°
2026-05-04 19:50 59.58837 31.48656 24975 ft 465 kts 105°
2026-05-04 19:50 59.58288 31.54949 25255 ft 468 kts 105°
2026-05-04 19:51 59.57728 31.61287 25579 ft 470 kts 105°
2026-05-04 19:51 59.57160 31.67658 25925 ft 473 kts 105°
2026-05-04 19:51 59.56585 31.74063 26229 ft 476 kts 105°
2026-05-04 19:51 59.56001 31.80500 26548 ft 478 kts 106°
2026-05-04 19:52 59.55409 31.86973 26877 ft 481 kts 106°
2026-05-04 19:52 59.54819 31.93392 27185 ft 483 kts 106°
2026-05-04 19:52 59.54185 31.99897 27479 ft 483 kts 110°
2026-05-04 19:52 59.53173 32.06158 27767 ft 477 kts 119°
2026-05-04 19:53 59.51717 32.11960 28062 ft 470 kts 128°
2026-05-04 19:53 59.49865 32.17199 28294 ft 464 kts 137°
2026-05-04 19:53 59.47683 32.21817 28566 ft 459 kts 143°
2026-05-04 19:53 59.45405 32.26234 28840 ft 461 kts 143°
2026-05-04 19:54 59.43118 32.30680 29107 ft 463 kts 143°
2026-05-04 19:54 59.40825 32.35140 29446 ft 464 kts 143°
2026-05-04 19:54 59.38538 32.39599 29821 ft 463 kts 143°
2026-05-04 19:54 59.36254 32.44047 30162 ft 463 kts 143°
2026-05-04 19:55 59.33968 32.48493 30457 ft 462 kts 143°
2026-05-04 19:55 59.31686 32.52918 30764 ft 462 kts 143°
2026-05-04 19:55 59.29396 32.57339 31073 ft 462 kts 143°
2026-05-04 19:55 59.27108 32.61743 31367 ft 461 kts 143°
2026-05-04 19:56 59.24823 32.66128 31715 ft 460 kts 143°
2026-05-04 19:56 59.22538 32.70497 32029 ft 460 kts 143°
2026-05-04 19:56 59.20248 32.74863 32335 ft 460 kts 143°
2026-05-04 19:56 59.17966 32.79217 32663 ft 460 kts 143°
2026-05-04 19:57 59.15681 32.83572 32963 ft 460 kts 143°
2026-05-04 19:57 59.13392 32.87926 33261 ft 459 kts 143°
2026-05-04 19:57 59.11104 32.92266 33571 ft 459 kts 143°
2026-05-04 19:57 59.08816 32.96597 33851 ft 459 kts 143°
2026-05-04 19:58 59.06521 33.00930 34101 ft 460 kts 143°
2026-05-04 19:58 59.04226 33.05252 34349 ft 460 kts 143°
2026-05-04 19:58 59.01928 33.09577 34588 ft 460 kts 143°
2026-05-04 19:58 58.99626 33.13902 34829 ft 461 kts 143°
2026-05-04 19:59 58.97353 33.18168 35042 ft 461 kts 143°
2026-05-04 19:59 58.95044 33.22489 35266 ft 461 kts 143°
2026-05-04 19:59 58.92702 33.26865 35480 ft 462 kts 143°
2026-05-04 19:59 58.90420 33.31124 35675 ft 462 kts 143°
2026-05-04 20:00 58.88107 33.35431 35893 ft 462 kts 143°
2026-05-04 20:00 58.85786 33.39739 36087 ft 463 kts 143°
2026-05-04 20:00 58.83461 33.44040 36259 ft 463 kts 142°
2026-05-04 20:00 58.81137 33.48327 36451 ft 463 kts 142°
2026-05-04 20:01 58.78809 33.52620 36661 ft 463 kts 142°
2026-05-04 20:01 58.74140 33.61213 36717 ft 465 kts 142°
2026-05-04 20:02 58.69458 33.69804 36723 ft 465 kts 142°
2026-05-04 20:02 58.64773 33.78372 36713 ft 465 kts 142°
2026-05-04 20:03 58.60085 33.86925 36680 ft 465 kts 142°
2026-05-04 20:03 58.55384 33.95431 36718 ft 465 kts 142°
2026-05-04 20:04 58.50672 34.03914 36716 ft 465 kts 142°
2026-05-04 20:04 58.45964 34.12388 36716 ft 465 kts 142°
2026-05-04 20:05 58.41249 34.20829 36721 ft 465 kts 143°
2026-05-04 20:05 58.36555 34.29195 36692 ft 465 kts 142°
2026-05-04 20:06 58.31819 34.37612 36705 ft 466 kts 142°
2026-05-04 20:06 58.27084 34.46014 36711 ft 466 kts 142°
2026-05-04 20:07 58.22330 34.54393 36719 ft 466 kts 142°
2026-05-04 20:07 58.17518 34.62626 36725 ft 465 kts 145°
2026-05-04 20:08 58.12563 34.70452 36704 ft 464 kts 146°
2026-05-04 20:08 58.07565 34.78150 36724 ft 464 kts 146°
2026-05-04 20:09 58.02586 34.85914 36729 ft 464 kts 145°
2026-05-04 20:09 57.97640 34.93713 36733 ft 463 kts 145°
2026-05-04 20:10 57.92693 35.01488 36737 ft 463 kts 145°
2026-05-04 20:10 57.87727 35.09199 36713 ft 463 kts 145°
2026-05-04 20:11 57.82764 35.16889 36742 ft 462 kts 145°
2026-05-04 20:11 57.77808 35.24552 36754 ft 462 kts 145°
2026-05-04 20:12 57.72875 35.32138 36753 ft 461 kts 145°
2026-05-04 20:12 57.67918 35.39753 36762 ft 461 kts 145°
2026-05-04 20:13 57.62955 35.47330 36748 ft 461 kts 145°
2026-05-04 20:13 57.57983 35.54888 36762 ft 461 kts 145°
2026-05-04 20:14 57.53025 35.62454 36766 ft 461 kts 145°
2026-05-04 20:14 57.48060 35.70005 36776 ft 461 kts 145°
2026-05-04 20:15 57.43100 35.77516 36756 ft 460 kts 144°
2026-05-04 20:15 57.40622 35.81258 36589 ft 460 kts 144°
2026-05-04 20:15 57.38119 35.85029 35567 ft 467 kts 145°
2026-05-04 20:15 57.35575 35.88846 34644 ft 473 kts 145°
2026-05-04 20:16 57.33013 35.92683 33828 ft 475 kts 145°
2026-05-04 20:16 57.30440 35.96534 32929 ft 477 kts 145°
2026-05-04 20:16 57.27858 36.00400 31973 ft 479 kts 145°
2026-05-04 20:16 57.25260 36.04283 31018 ft 481 kts 145°
2026-05-04 20:17 57.22647 36.08178 30062 ft 484 kts 145°
2026-05-04 20:17 57.20020 36.12088 29031 ft 485 kts 145°
2026-05-04 20:17 57.17402 36.15979 28071 ft 483 kts 144°
2026-05-04 20:17 57.14817 36.19806 27178 ft 482 kts 144°
2026-05-04 20:18 57.12211 36.23654 26386 ft 478 kts 144°
2026-05-04 20:18 57.09633 36.27458 25633 ft 473 kts 144°
2026-05-04 20:18 57.07074 36.31224 24903 ft 468 kts 144°
2026-05-04 20:18 57.04540 36.34945 24200 ft 464 kts 144°
2026-05-04 20:19 57.02030 36.38624 23534 ft 460 kts 145°
2026-05-04 20:19 56.99534 36.42258 22796 ft 456 kts 145°
2026-05-04 20:19 56.97056 36.45834 22087 ft 451 kts 145°
2026-05-04 20:19 56.94598 36.49360 21401 ft 446 kts 145°
2026-05-04 20:20 56.92162 36.52842 20765 ft 442 kts 145°
2026-05-04 20:20 56.89753 36.56283 20142 ft 437 kts 145°
2026-05-04 20:20 56.87374 36.59696 19531 ft 433 kts 144°
2026-05-04 20:20 56.85021 36.63094 18939 ft 429 kts 144°
2026-05-04 20:21 56.82694 36.66470 18349 ft 425 kts 144°
2026-05-04 20:21 56.80388 36.69812 17725 ft 421 kts 144°
2026-05-04 20:21 56.75878 36.76320 16811 ft 406 kts 144°
2026-05-04 20:22 56.73807 36.79674 16677 ft 394 kts 134°
2026-05-04 20:22 56.72267 36.83712 16540 ft 385 kts 119°
2026-05-04 20:22 56.71347 36.88207 16400 ft 375 kts 104°
2026-05-04 20:22 56.70920 36.92854 16078 ft 370 kts 99°
2026-05-04 20:23 56.70534 36.97470 15680 ft 367 kts 100°
2026-05-04 20:23 56.70148 37.02043 15278 ft 365 kts 100°
2026-05-04 20:23 56.69762 37.06585 14879 ft 362 kts 100°
2026-05-04 20:23 56.69374 37.11091 14480 ft 360 kts 100°
2026-05-04 20:24 56.68982 37.15570 14097 ft 357 kts 100°
2026-05-04 20:24 56.68590 37.20022 13717 ft 355 kts 101°
2026-05-04 20:24 56.68199 37.24439 13309 ft 353 kts 101°
2026-05-04 20:24 56.67810 37.28834 12880 ft 351 kts 101°
2026-05-04 20:25 56.67372 37.33138 12687 ft 340 kts 108°
2026-05-04 20:25 56.66409 37.36938 12561 ft 325 kts 127°
2026-05-04 20:25 56.64930 37.39923 12300 ft 314 kts 145°
2026-05-04 20:25 56.63091 37.41944 11945 ft 306 kts 160°
2026-05-04 20:26 56.61138 37.43481 11572 ft 306 kts 160°
2026-05-04 20:26 56.59194 37.45017 11220 ft 304 kts 160°
2026-05-04 20:26 56.57912 37.46032 10991 ft 303 kts 160°
2026-05-04 20:26 56.55988 37.47559 10692 ft 300 kts 160°
2026-05-04 20:27 56.54105 37.49026 10570 ft 288 kts 165°
2026-05-04 20:27 56.52199 37.49612 10435 ft 272 kts 186°
2026-05-04 20:27 56.50408 37.48989 10278 ft 255 kts 204°
2026-05-04 20:27 56.48884 37.47501 9987 ft 249 kts 218°
2026-05-04 20:28 56.47451 37.45667 9529 ft 254 kts 218°
2026-05-04 20:28 56.46012 37.43811 9171 ft 254 kts 218°
2026-05-04 20:28 56.44613 37.41926 8957 ft 247 kts 226°
2026-05-04 20:28 56.43623 37.39491 8965 ft 237 kts 246°
2026-05-04 20:29 56.43201 37.36651 8900 ft 234 kts 265°
2026-05-04 20:29 56.43256 37.33710 8827 ft 235 kts 272°
2026-05-04 20:29 56.43345 37.30762 8753 ft 235 kts 271°
2026-05-04 20:29 56.43428 37.27821 8690 ft 234 kts 271°
2026-05-04 20:30 56.43511 37.24881 8626 ft 234 kts 271°
2026-05-04 20:30 56.43438 37.21964 8557 ft 232 kts 257°
2026-05-04 20:30 56.42892 37.19228 8473 ft 232 kts 244°
2026-05-04 20:30 56.42173 37.16620 8410 ft 232 kts 244°
2026-05-04 20:31 56.41462 37.14003 8330 ft 232 kts 244°
2026-05-04 20:31 56.40673 37.11523 8252 ft 232 kts 230°
2026-05-04 20:31 56.39351 37.09872 8172 ft 237 kts 201°
2026-05-04 20:31 56.37699 37.09637 8093 ft 245 kts 172°
2026-05-04 20:32 56.36158 37.11022 8023 ft 255 kts 142°
2026-05-04 20:32 56.34845 37.13201 7944 ft 257 kts 141°
2026-05-04 20:32 56.33537 37.15403 7874 ft 257 kts 141°
2026-05-04 20:32 56.32229 37.17596 7785 ft 257 kts 141°
2026-05-04 20:33 56.30916 37.19783 7716 ft 257 kts 141°
2026-05-04 20:33 56.29603 37.21958 7640 ft 257 kts 141°
2026-05-04 20:33 56.28292 37.24125 7561 ft 256 kts 141°
2026-05-04 20:33 56.26979 37.26295 7479 ft 256 kts 141°
2026-05-04 20:34 56.25636 37.28380 7397 ft 253 kts 150°
2026-05-04 20:34 56.24083 37.29767 7330 ft 247 kts 167°
2026-05-04 20:34 56.22435 37.30577 7263 ft 246 kts 169°
2026-05-04 20:34 56.20783 37.31389 7187 ft 246 kts 169°
2026-05-04 20:35 56.19136 37.32205 7109 ft 246 kts 168°
2026-05-04 20:35 56.17608 37.33594 7036 ft 253 kts 139°
2026-05-04 20:35 56.16726 37.36347 6890 ft 263 kts 103°
2026-05-04 20:35 56.16832 37.39588 6604 ft 263 kts 75°
2026-05-04 20:36 56.17312 37.42762 6330 ft 264 kts 75°
2026-05-04 20:36 56.17800 37.45933 6047 ft 263 kts 75°
2026-05-04 20:36 56.18279 37.49048 5784 ft 262 kts 75°
2026-05-04 20:36 56.18762 37.52201 5499 ft 262 kts 75°
2026-05-04 20:37 56.19337 37.55351 5234 ft 278 kts 61°
2026-05-04 20:37 56.20608 37.58023 4957 ft 285 kts 32°
2026-05-04 20:37 56.22403 37.59373 4686 ft 278 kts
2026-05-04 20:37 56.24283 37.59097 4406 ft 269 kts 335°
2026-05-04 20:38 56.25810 37.57317 4130 ft 259 kts 307°
2026-05-04 20:38 56.26623 37.54527 3856 ft 251 kts 278°
2026-05-04 20:38 56.26540 37.51465 3589 ft 246 kts 249°
2026-05-04 20:38 56.25599 37.48954 3322 ft 246 kts 221°
2026-05-04 20:39 56.24049 37.47661 3047 ft 251 kts 191°
2026-05-04 20:39 56.22316 37.47916 2777 ft 253 kts 166°
2026-05-04 20:39 56.20812 37.49540 2546 ft 255 kts 139°
2026-05-04 20:39 56.19873 37.52167 2476 ft 247 kts 112°
2026-05-04 20:40 56.19649 37.55216 2491 ft 250 kts 90°
2026-05-04 20:40 56.19580 37.58293 2480 ft 243 kts 112°
2026-05-04 20:40 56.18799 37.60896 2489 ft 235 kts 133°
2026-05-04 20:40 56.17741 37.63045 2491 ft 231 kts 140°
2026-05-04 20:41 56.16592 37.65054 2492 ft 231 kts 142°
2026-05-04 20:41 56.15424 37.67036 2490 ft 232 kts 142°
2026-05-04 20:41 56.14257 37.69036 2490 ft 232 kts 142°
2026-05-04 20:41 56.13102 37.71057 2487 ft 231 kts 141°
2026-05-04 20:42 56.11968 37.73074 2496 ft 229 kts 140°
2026-05-04 20:42 56.10843 37.75098 2496 ft 229 kts 140°
2026-05-04 20:42 56.09584 37.76725 2495 ft 219 kts 165°
2026-05-04 20:42 56.08149 37.77059 2494 ft 200 kts 192°
2026-05-04 20:43 56.06862 37.76419 2497 ft 188 kts 202°
2026-05-04 20:43 56.05627 37.75708 2494 ft 185 kts 201°
2026-05-04 20:43 56.04415 37.75018 2494 ft 182 kts 201°
2026-05-04 20:43 56.03211 37.74335 2496 ft 182 kts 201°
2026-05-04 20:44 56.02134 37.73238 2489 ft 179 kts 227°
2026-05-04 20:44 56.01540 37.71353 2518 ft 169 kts 252°
2026-05-04 20:44 56.01257 37.69407 2495 ft 154 kts 253°
2026-05-04 20:44 56.00998 37.67633 2479 ft 142 kts 254°
2026-05-04 20:45 56.00755 37.65970 2494 ft 137 kts 254°
2026-05-04 20:45 56.00516 37.64340 2504 ft 134 kts 253°
2026-05-04 20:45 56.00285 37.62771 2502 ft 128 kts 254°
2026-05-04 20:45 56.00059 37.61234 2447 ft 127 kts 252°
2026-05-04 20:46 55.99833 37.59696 2326 ft 128 kts 253°
2026-05-04 20:46 55.99607 37.58165 2182 ft 126 kts 253°
2026-05-04 20:46 55.99384 37.56654 2036 ft 125 kts 252°
2026-05-04 20:46 55.99164 37.55158 1872 ft 124 kts 252°
2026-05-04 20:47 55.98945 37.53678 1718 ft 123 kts 252°
2026-05-04 20:47 55.98728 37.52210 1540 ft 123 kts 251°
2026-05-04 20:47 55.98508 37.50730 1358 ft 128 kts 252°
2026-05-04 20:47 55.98273 37.49132 1180 ft 136 kts 253°
2026-05-04 20:48 55.98035 37.47509 1046 ft 138 kts 252°
2026-05-04 20:48 55.97788 37.45839 846 ft 140 kts 252°
2026-05-04 20:48 55.97540 37.44156 671 ft 140 kts 253°
2026-05-04 20:48 55.97309 37.42656 642 ft 89 kts 255°
2026-05-04 20:49 55.97233 37.42098 638 ft 13 kts 257°
2026-05-04 20:49 55.97202 37.41868 639 ft 21 kts 255°
2026-05-04 20:49 55.97158 37.41587 638 ft 27 kts 255°
2026-05-04 20:49 55.97157 37.41356 642 ft 13 kts 330°
2026-05-04 20:50 55.97238 37.41312 639 ft 12 kts 346°
2026-05-04 20:50 55.97244 37.41309 646 ft 0 kts 345°
2026-05-04 20:53 55.97246 37.41309 646 ft 2 kts 345°
2026-05-04 20:53 55.97250 37.41306 644 ft 0 kts 345°
2026-05-04 20:54 55.97272 37.41296 639 ft 14 kts 346°
2026-05-04 20:54 55.97380 37.41243 640 ft 16 kts 345°
2026-05-04 20:54 55.97486 37.41192 643 ft 12 kts 345°
2026-05-04 20:55 55.97545 37.41244 648 ft 10 kts 70°
2026-05-04 20:55 55.97568 37.41410 639 ft 19 kts 76°
2026-05-04 20:55 55.97613 37.41594 641 ft 14 kts 22°
2026-05-04 20:55 55.97721 37.41562 645 ft 17 kts 345°
2026-05-04 20:56 55.97816 37.41517 643 ft 9 kts 345°
2026-05-04 20:56 55.97864 37.41519 639 ft 6 kts 49°
2026-05-04 20:56 55.97877 37.41594 643 ft 6 kts 76°
2026-05-04 20:56 55.97886 37.41658 639 ft 0 kts 77°